Flag for Brazil Weather past 2 weeks in São Paulo, São Paulo, Brazil

Now
82 °F

Sunny.


Feels Like: 81 °F
Forecast: 60 / 89 °F
Wind: 8 mph from North

Location: Sao Paulo Airport

Current Time: Aug 31, 2015 at 11:21:27 AM

Latest Report: Aug 31, 2015 at 11:00 AM


Visibility: 10 mi

Pressure: 30.21 "Hg (27.70 "Hg at 765m altitude)

Humidity: 35%

Dew point: 52 °F

Location of São PauloLocation

Historic Weather in São Paulo — Graph

°F

São Paulo temperature yesterday

Maximum temperature yesterday: 88 °F (at 3:00 PM)
Minimum temperature yesterday: 61 °F (at 1:00 AM)
Average temperature yesterday: 72 °F

Past Weeks' High & Low Weather Summary

 TemperatureHumidityPressure
High88 °F (Aug 30, 3:00 PM)94% (Aug 20, 11:04 PM)30.30 "Hg (Aug 20, 11:04 PM)
Low52 °F (Aug 29, 6:00 AM)22% (Aug 23, 3:00 PM)29.95 "Hg (Aug 19, 4:00 PM)
Average65 °F69%30.15 "Hg
* Reported Aug 16 10:00 AM — Aug 31 10:00 AM, São Paulo, Weather by CustomWeather, © 2015

Note: Actual official high and low records may vary slightly from our data, if they occured in-between our weather recording intervals... More about our weather records

Advertising

São Paulo weather history for previous 24 hours

 ConditionsComfort  
Time TempWeatherWind HumidityBarometerVisibility
10:00 AM
Mon, Aug 31
79 °FSunny.3 mph45%30.21 "Hg10 mi
9:00 AM73 °FSunny.5 mph50%30.24 "Hg10 mi
8:00 AM70 °FSunny.5 mph60%30.21 "Hg10 mi
7:00 AM66 °FSunny.3 mph68%30.21 "Hg10 mi
6:00 AM63 °FSunny.5 mph77%30.15 "Hg10 mi
5:00 AM64 °FClear.1 mph73%30.15 "Hg10 mi
4:00 AM64 °FClear.2 mph68%30.15 "Hg10 mi
3:00 AM68 °FClear.5 mph60%30.15 "Hg10 mi
2:00 AM66 °FClear.2 mph64%30.15 "Hg10 mi
1:00 AM68 °FClear.1 mph64%30.18 "Hg10 mi
12:00 AM68 °FClear.3 mph69%30.18 "Hg10 mi
11:00 PM
Sun, Aug 30
70 °FClear.No wind64%30.18 "Hg10 mi
10:00 PM72 °FClear.2 mph61%30.18 "Hg10 mi
9:00 PM73 °FClear.1 mph47%30.18 "Hg10 mi
8:00 PM75 °FClear.No wind36%30.18 "Hg10 mi
7:00 PM79 °FClear.5 mph34%30.15 "Hg10 mi
6:00 PM82 °FClear.No wind25%30.15 "Hg10 mi
5:00 PM88 °FClear.3 mph24%30.12 "Hg10 mi
4:00 PM88 °FPassing clouds.3 mph22%30.15 "HgN/A
3:00 PM88 °FPassing clouds.6 mph24%30.15 "HgN/A
2:00 PM86 °FPassing clouds.5 mph27%30.15 "HgN/A
1:00 PM84 °FPassing clouds.7 mph31%30.18 "HgN/A
12:00 PM81 °FSunny.2 mph42%30.24 "Hg10 mi
11:00 AM77 °FSunny.3 mph51%30.24 "Hg10 mi
Weather by CustomWeather, © 2015

See weather overviewHow to use our weather pages